Weather History for Phnom Penh, Cambodia

Change the Weather History Date:

Sunday, January 27, 2013

  Actual Average Record
Temperature  
Mean Temperature 82 °F -  
Max Temperature 91 °F 88 °F 95 °F (2011)
Min Temperature 72 °F 73 °F 69 °F (2004)
Cooling Degree Days 16    
Growing Degree Days 32 (Base 50)    
Moisture  
Dew Point 66 °F    
Average Humidity 57    
Maximum Humidity 82    
Minimum Humidity 36    
Precipitation  
Precipitation 0.00 in - - ()
Sea Level Pressure  
Sea Level Pressure 29.90 in    
Wind  
Wind Speed 6 mph ()    
Max Wind Speed 12 mph    
Max Gust Speed -    
Visibility 5.9 miles    
Events      
Averages and records for this station are not official NWS values.
T = Trace of Precipitation, MM = Missing Value Source: Averaged Metar Reports

Daily Weather History Graph

Daily Weather History Graph

Search for Another Location

Airport:

Trip Planner

Search our weather history database for the weather conditions in past years. The results will help you decide how hot, cold, wet, or windy it might be!

Date:

Astronomy

Jan. 27, 2013 Rise Set
Actual Time 6:25 AM ICT 6:01 PM ICT
Civil Twilight 6:03 AM ICT 6:23 PM ICT
Nautical Twilight 5:37 AM ICT 6:49 PM ICT
Astronomical Twilight 5:12 AM ICT 7:14 PM ICT
Moon 6:10 PM ICT (1/27) 6:09 AM ICT (1/27)
Length of Visible Light 12h 20m
Length of Day
11h 36m
Full, 100% of the Moon is Illuminated
Jan 27
Full
Feb 3
Last Quarter
Feb 10
New
Feb 18
First Quarter
Feb 26
Full

Hourly Weather History & Observations

Time (ICT) Temp. Heat Index Dew Point Humidity Pressure Visibility Wind Dir Wind Speed Gust Speed Precip Events Conditions
12:00 AM 78.8 °F - 69.8 °F 74% 29.89 in 6.2 mi South 6.9 mph - N/A   Partly Cloudy
12:30 AM 78.8 °F - 68.0 °F 69% 29.89 in 6.2 mi South 5.8 mph - N/A   Partly Cloudy
1:00 AM 77.0 °F - 66.2 °F 69% 29.89 in 6.2 mi South 6.9 mph - N/A   Partly Cloudy
6:30 AM 73.4 °F - 66.2 °F 78% 29.92 in - SSW 4.6 mph - N/A   Clear
7:00 AM 73 °F - 69 °F 82% 29.95 in 6 mi South 4.5 mph - -   Partly Cloudy
7:00 AM 73.4 °F - 66.2 °F 78% 29.95 in 5.6 mi South 3.5 mph - N/A   Unknown
7:30 AM 75.2 °F - 66.2 °F 73% 29.95 in 5.6 mi SSW 4.6 mph - N/A   Unknown
8:00 AM 77.0 °F - 68.0 °F 74% 29.95 in 5.6 mi South 6.9 mph - N/A   Unknown
8:30 AM 78.8 °F - 68.0 °F 69% 29.98 in 6.2 mi South 8.1 mph - N/A   Scattered Clouds
9:00 AM 80.6 °F 83.2 °F 68.0 °F 65% 29.98 in 6.2 mi South 8.1 mph - N/A   Scattered Clouds
9:30 AM 82.4 °F 85.4 °F 68.0 °F 62% 29.98 in 6.2 mi South 9.2 mph - N/A   Partly Cloudy
10:00 AM 82.4 °F 85.4 °F 68.0 °F 62% 29.98 in 6.2 mi South 6.9 mph - N/A   Partly Cloudy
10:30 AM 84.2 °F 87.3 °F 68.0 °F 58% 29.95 in - SSE 4.6 mph - N/A   Clear
11:00 AM 86.0 °F 87.3 °F 64.4 °F 48% 29.95 in 6.2 mi South 8.1 mph - N/A   Partly Cloudy
11:30 AM 86.0 °F 87.3 °F 64.4 °F 48% 29.95 in 6.2 mi SSE 6.9 mph - N/A   Partly Cloudy
12:00 PM 86.0 °F 87.3 °F 64.4 °F 48% 29.92 in 6.2 mi SE 8.1 mph - N/A   Partly Cloudy
12:30 PM 89.6 °F 91.1 °F 64.4 °F 43% 29.92 in 6.2 mi SSE 6.9 mph - N/A   Partly Cloudy
1:00 PM 89.6 °F 91.1 °F 64.4 °F 43% 29.89 in 6.2 mi SSE 3.5 mph - N/A   Partly Cloudy
1:30 PM 91.4 °F 92.1 °F 62.6 °F 38% 29.89 in 6.2 mi East 6.9 mph - N/A   Partly Cloudy
2:00 PM 91.4 °F 91.4 °F 60.8 °F 36% 29.86 in 6.2 mi SSE 6.9 mph - N/A   Partly Cloudy
2:30 PM 91.4 °F 91.4 °F 60.8 °F 36% 29.86 in 6.2 mi SSE 5.8 mph - N/A   Partly Cloudy
3:00 PM 89.6 °F 90.1 °F 62.6 °F 40% 29.83 in 6.2 mi SE 3.5 mph - N/A   Partly Cloudy
3:30 PM 91.4 °F 93.2 °F 64.4 °F 41% 29.83 in 6.2 mi East 4.6 mph - N/A   Partly Cloudy
4:00 PM 89.6 °F 90.1 °F 62.6 °F 40% 29.83 in 6.2 mi East 5.8 mph - N/A   Partly Cloudy
4:30 PM 91.4 °F 93.2 °F 64.4 °F 41% 29.83 in - SW 4.6 mph - N/A   Clear
5:00 PM 89.6 °F 91.1 °F 64.4 °F 43% 29.83 in - SW 6.9 mph - N/A   Clear
5:30 PM 89.6 °F 92.2 °F 66.2 °F 46% 29.83 in - SE 5.8 mph - N/A   Clear
6:00 PM 87.8 °F 90.4 °F 66.2 °F 49% 29.86 in - SE 4.6 mph - N/A   Clear
6:30 PM 86.0 °F 88.2 °F 66.2 °F 51% 29.86 in - South 4.6 mph - N/A   Clear
7:00 PM 84.2 °F 86.6 °F 66.2 °F 55% 29.86 in 5.6 mi SSE 6.9 mph - N/A   Unknown
7:30 PM 84.2 °F 87.3 °F 68.0 °F 58% 29.86 in 5.6 mi South 8.1 mph - N/A   Unknown
8:00 PM 84.2 °F 87.3 °F 68.0 °F 58% 29.89 in 5.6 mi SSW 5.8 mph - N/A   Unknown
8:30 PM 82.4 °F 85.4 °F 68.0 °F 62% 29.89 in 5.6 mi South 6.9 mph - N/A   Unknown
9:00 PM 82.4 °F 85.4 °F 68.0 °F 62% 29.89 in 5.6 mi SW 4.6 mph - N/A   Unknown
9:30 PM 80.6 °F 83.2 °F 68.0 °F 65% 29.89 in 5.6 mi SSW 4.6 mph - N/A   Unknown
10:00 PM 80.6 °F 83.2 °F 68.0 °F 65% 29.89 in 5.6 mi SSW 8.1 mph - N/A   Unknown
10:30 PM 80.6 °F 83.2 °F 68.0 °F 65% 29.92 in 5.6 mi South 11.5 mph - N/A   Unknown
11:00 PM 80.6 °F 83.2 °F 68.0 °F 65% 29.92 in 5.6 mi South 8.1 mph - N/A   Unknown
11:30 PM 78.8 °F - 66.2 °F 65% 29.89 in 5.6 mi South 8.1 mph - N/A   Unknown